#timestamp,LO_Frequency,Hit,StdDev 
1538575215.3,286047000.3,N
1538575235.1,286047002.8,N
1538575255.9,286047004.2,N
1538575275.7,286047004.0,N
1538575295.5,286047001.8,N
1538575315.4,286047002.4,N
1538575335.2,286047002.1,N
1538575355.0,286047004.0,N
1538575355.9,286047004.0,Y
1538575375.8,286047002.0,P
1538575395.6,286046999.7,P
1538575415.5,286047000.6,N
1538575435.3,286047000.1,N
1538575455.1,286047002.8,N
1538575475.9,286047001.6,N
1538575495.7,286047004.2,Y
1538575515.5,286047004.3,P
1538575535.4,286047002.5,N
1538575555.2,286047002.5,N
1538575575.1,286047003.9,Y
1538575576.0,286047003.9,P
1538575595.8,286046999.0,N
1538575615.6,286046999.4,N
1538575635.5,286046997.1,N
1538575655.3,286046995.1,N
1538575675.1,286046995.3,N
1538575695.9,286046995.9,N
1538575715.7,286046994.2,N
1538575735.5,286046996.4,N
1538575755.4,286046996.3,N
1538575775.2,286046996.4,N
1538575795.1,286046995.1,N
1538575796.0,286046995.1,N
1538575815.8,286046996.7,N
1538575835.6,286046998.1,N
1538575855.5,286047000.4,N
1538575875.3,286046999.1,N
1538575895.1,286046999.5,N
1538575915.9,286046997.8,N
1538575935.7,286046995.5,N
1538575955.6,286046995.2,N
1538575975.4,286046997.5,N
1538575995.2,286046996.0,N
1538576015.1,286046997.5,N
1538576016.0,286046997.5,N
1538576035.8,286046995.4,N
1538576055.6,286046995.6,N
1538576075.5,286046996.4,N
1538576095.3,286046994.0,N
1538576115.1,286046993.3,N
1538576135.9,286046995.5,N
1538576155.7,286046993.7,Y
1538576175.6,286046996.8,P
1538576195.4,286046997.3,P
1538576215.2,286046995.7,P
1538576235.1,286046996.7,Y
1538576236.0,286046996.7,P
1538576255.8,286047004.2,P
1538576275.7,286047003.5,N
1538576295.5,286047001.4,N
1538576315.3,286047001.4,N
1538576335.2,286047004.1,N
1538576355.0,286047005.0,N
1538576355.9,286047005.0,N
1538576375.7,286047001.3,N
1538576395.6,286047002.6,N
1538576415.4,286047000.9,N
1538576435.3,286046999.9,N
1538576455.1,286047000.0,N
1538576456.0,286047000.0,N
1538576475.8,286046998.4,N
1538576495.7,286047002.4,N
1538576515.5,286047002.5,N
1538576535.3,286047000.9,N
1538576555.2,286046999.7,N
1538576575.0,286047002.6,N
1538576575.9,286047002.6,N
1538576595.8,286047002.0,N
1538576615.6,286047003.3,N
1538576635.4,286047005.3,N
1538576655.3,286047002.9,N
1538576675.1,286047003.7,N
1538576695.8,286047001.5,N
1538576715.7,286047001.9,N
1538576735.5,286047001.7,N
1538576755.4,286047003.8,N
1538576775.2,286047001.6,N
1538576795.0,286047001.0,N
1538576795.9,286047001.0,N
1538576815.8,286047002.4,N
1538576835.6,286047002.5,N
1538576855.4,286047001.6,N
1538576875.3,286047001.7,N
1538576895.1,286047002.7,N
1538576915.8,286046998.1,N
1538576935.7,286047000.4,N
1538576955.5,286047000.2,N
1538576975.4,286046999.9,N
1538576995.2,286046999.8,N
1538577015.0,286047002.0,N
1538577015.9,286047002.0,N
1538577035.8,286047002.0,N
1538577055.6,286047002.8,N
1538577075.5,286046998.6,N
1538577095.3,286046998.6,N
1538577115.1,286046999.8,N
1538577135.9,286047000.9,N
1538577155.7,286047002.7,N
1538577175.5,286047002.2,N
1538577195.4,286047002.7,N
1538577215.2,286047000.0,N
1538577235.1,286046998.3,N
1538577236.0,286046998.3,N
1538577255.8,286046999.4,N
1538577275.6,286046997.9,N
1538577295.5,286046999.5,N
1538577315.3,286046998.1,N
1538577335.1,286047000.8,N
1538577355.9,286047002.0,N
1538577375.7,286047002.3,N
1538577395.6,286047000.5,N
1538577415.4,286047000.0,N
1538577435.2,286047000.7,N
1538577455.1,286047001.0,N
1538577456.0,286047001.0,N
1538577475.8,286046998.1,N
1538577495.6,286046998.9,N
1538577515.5,286046999.1,N
1538577535.3,286046999.4,N
1538577555.2,286046998.9,N
1538577575.9,286046998.3,N
1538577595.7,286046998.2,N
1538577615.6,286046998.4,N
1538577635.4,286046996.5,N
1538577655.2,286046998.8,N
1538577675.1,286046997.2,N
1538577676.0,286046997.2,N
1538577695.8,286046999.6,N
1538577715.7,286046999.3,N
1538577735.5,286047000.7,N
1538577755.3,286047000.0,N
1538577775.2,286046998.1,N
1538577795.0,286046998.2,N
1538577795.9,286046998.2,N
1538577815.7,286047001.0,N
1538577835.6,286047000.7,N
1538577855.4,286047000.9,N
1538577875.3,286047002.7,N
1538577895.1,286047001.8,N
1538577915.8,286046999.8,N
1538577935.7,286046999.0,N
1538577955.5,286046996.9,N
1538577975.4,286046999.6,N
1538577995.2,286046999.0,N
1538578015.0,286046997.9,N
1538578015.9,286046997.9,N
1538578035.8,286046997.8,N
1538578055.6,286046995.3,Y
1538578075.4,286046998.0,P
1538578095.3,286046995.3,P
1538578115.1,286046997.4,N
1538578135.9,286046997.6,N
1538578155.7,286046997.6,N
1538578175.5,286046997.7,N
1538578195.4,286046997.8,N
1538578215.2,286046997.7,N
1538578235.0,286046995.7,Y
1538578235.9,286046995.7,P
1538578255.8,286046997.1,P
1538578275.6,286046998.3,N
1538578295.5,286047001.1,N
1538578315.3,286047000.4,N
1538578335.1,286047002.5,N
1538578355.9,286047001.0,N
1538578375.7,286047001.0,N
1538578395.5,286047000.5,N
1538578415.4,286047001.6,N
1538578435.2,286047000.6,N
1538578455.1,286047000.2,N
1538578456.0,286047000.2,N
1538578475.8,286047001.6,N
1538578495.6,286047002.5,N
1538578515.5,286046999.7,N
1538578535.3,286047000.8,N
1538578555.1,286047000.5,N
1538578575.9,286046999.4,N
1538578595.7,286046999.4,N
1538578615.5,286046997.7,N
1538578635.4,286046996.6,N
1538578655.2,286046997.5,N
1538578675.1,286046996.6,N
1538578676.0,286046996.6,N
1538578695.8,286047001.0,N
1538578715.6,286046998.6,N
1538578735.5,286046997.4,N
1538578755.3,286046997.2,N
1538578775.1,286046998.9,N
1538578795.9,286046999.0,N
